Platte River (Nebraska), Louisville (06805500)

StateNebraskaLatestUnknown (4790 cfs)
RiverPlatte RiverRatingObservedEstimated
Updated2026-05-10 15:15 (36 minutes ago)Flood - The river is flooding. Obstacles can be treacherous or deadly. The river should be avoided at this stage for casual trips and definitely for the inexperienced. Trips should be attempted only with protective gear and equipment.Flood(none)(none)
Discharge4790 cfs (median: 7600 cfs)High - The river is high and potentially dangerous, especially for the young and / or inexperienced. Normal stream obstacles are sometimes difficult to navigate. Extended distances can be attempted, but canoe travel may not be advisable.High(none)(none)
Height3.21 feetGood - Conditions are ideal for a canoe or kayak. Boats typically will drag on fewer than one-quarter of riffles, if at all, and portages are unnecessary or rare. Normal float lengths can be attempted without a problem.Good(none)(none)
TrendFalling (falling over 24 hours)Low - River is low but can still be floated. Some riffles are okay but most come with significant dragging and might need a portage. Float lengths should be reduced to accommodate low flow, dragging, and portages.Low(none)(none)
USGSExternal icon USGS Site (External icon Duck Duck Go Maps)Poor - River is too low to float comfortably. Most or all riffles will drag or must be portaged and some obstacles (such as slick shelf rock) cause undue problems. Avoid the river at this stage for casual paddling trips.Poor(none)(none)

Trending Data

Plot Image

Trips for Platte River (Nebraska), Louisville (06805500)

DateStartEndDistanceConditionDischargeHeightFishingDetails

A total of 0 rows are displayed.

Condition Descriptions

Fishing Conditions

Fish Species

Notes

Classic Trip List

The classic River Trips application is still available for use. It is updated with the new system using a data retrofit. It is no longer maintained. The original River Trips application is no longer updated (as of 1 Dec 2016) but can be checked for errors or for the condition of the data before it was converted to the new system.

Gauge Data Table

ObservationHeightDischargeMaximum
Discharge
Minimum
Discharge
Mean
Discharge
P05P10P20P25P50
(Median)
P75P80P90P95
2026-05-10 15:15 3.21 4790 40900 (1984) 2570 (1955) 10000 3150 3750 4760 5080 7600 11400 13500 19500 26200
2026-05-10 14:15 3.22 4830 40900 (1984) 2570 (1955) 10000 3150 3750 4760 5080 7600 11400 13500 19500 26200
2026-05-10 13:15 3.23 4870 40900 (1984) 2570 (1955) 10000 3150 3750 4760 5080 7600 11400 13500 19500 26200
2026-05-10 12:15 3.20 4750 40900 (1984) 2570 (1955) 10000 3150 3750 4760 5080 7600 11400 13500 19500 26200
2026-05-10 11:15 3.19 4710 40900 (1984) 2570 (1955) 10000 3150 3750 4760 5080 7600 11400 13500 19500 26200
2026-05-10 10:15 3.22 4830 40900 (1984) 2570 (1955) 10000 3150 3750 4760 5080 7600 11400 13500 19500 26200
2026-05-10 09:15 3.20 4750 40900 (1984) 2570 (1955) 10000 3150 3750 4760 5080 7600 11400 13500 19500 26200
2026-05-10 08:15 3.23 4870 40900 (1984) 2570 (1955) 10000 3150 3750 4760 5080 7600 11400 13500 19500 26200
2026-05-10 07:15 3.22 4830 40900 (1984) 2570 (1955) 10000 3150 3750 4760 5080 7600 11400 13500 19500 26200
2026-05-10 06:15 3.23 4870 40900 (1984) 2570 (1955) 10000 3150 3750 4760 5080 7600 11400 13500 19500 26200
2026-05-10 05:15 3.22 4830 40900 (1984) 2570 (1955) 10000 3150 3750 4760 5080 7600 11400 13500 19500 26200
2026-05-10 04:15 3.24 4910 40900 (1984) 2570 (1955) 10000 3150 3750 4760 5080 7600 11400 13500 19500 26200
2026-05-10 03:15 3.23 4870 40900 (1984) 2570 (1955) 10000 3150 3750 4760 5080 7600 11400 13500 19500 26200
2026-05-10 02:15 3.22 4830 40900 (1984) 2570 (1955) 10000 3150 3750 4760 5080 7600 11400 13500 19500 26200
2026-05-10 01:15 3.20 4750 40900 (1984) 2570 (1955) 10000 3150 3750 4760 5080 7600 11400 13500 19500 26200
2026-05-10 00:15 3.24 4910 40900 (1984) 2570 (1955) 10000 3150 3750 4760 5080 7600 11400 13500 19500 26200
2026-05-09 23:15 3.22 4830 40900 (1984) 2570 (1955) 10000 3150 3750 4760 5080 7600 11400 13500 19500 26200
2026-05-09 22:15 3.25 4950 43900 (1984) 2430 (1955) 10200 3090 3730 4750 5530 8230 12400 13200 20900 23900
2026-05-09 21:15 3.26 4990 43900 (1984) 2430 (1955) 10200 3090 3730 4750 5530 8230 12400 13200 20900 23900
2026-05-09 20:15 3.25 4950 43900 (1984) 2430 (1955) 10200 3090 3730 4750 5530 8230 12400 13200 20900 23900
2026-05-09 19:15 3.25 4950 43900 (1984) 2430 (1955) 10200 3090 3730 4750 5530 8230 12400 13200 20900 23900
2026-05-09 18:15 3.25 4950 43900 (1984) 2430 (1955) 10200 3090 3730 4750 5530 8230 12400 13200 20900 23900
2026-05-09 17:15 3.25 4950 43900 (1984) 2430 (1955) 10200 3090 3730 4750 5530 8230 12400 13200 20900 23900
2026-05-09 16:15 3.24 4910 43900 (1984) 2430 (1955) 10200 3090 3730 4750 5530 8230 12400 13200 20900 23900
2026-05-09 15:15 3.25 4950 43900 (1984) 2430 (1955) 10200 3090 3730 4750 5530 8230 12400 13200 20900 23900
2026-05-09 14:15 3.26 4990 43900 (1984) 2430 (1955) 10200 3090 3730 4750 5530 8230 12400 13200 20900 23900
2026-05-09 13:15 3.23 4870 43900 (1984) 2430 (1955) 10200 3090 3730 4750 5530 8230 12400 13200 20900 23900
2026-05-09 12:15 3.22 4830 43900 (1984) 2430 (1955) 10200 3090 3730 4750 5530 8230 12400 13200 20900 23900
2026-05-09 11:15 3.22 4830 43900 (1984) 2430 (1955) 10200 3090 3730 4750 5530 8230 12400 13200 20900 23900
2026-05-09 10:15 3.22 4830 43900 (1984) 2430 (1955) 10200 3090 3730 4750 5530 8230 12400 13200 20900 23900
2026-05-09 09:15 3.23 4870 43900 (1984) 2430 (1955) 10200 3090 3730 4750 5530 8230 12400 13200 20900 23900
2026-05-09 08:15 3.21 4790 43900 (1984) 2430 (1955) 10200 3090 3730 4750 5530 8230 12400 13200 20900 23900
2026-05-09 07:15 3.22 4830 43900 (1984) 2430 (1955) 10200 3090 3730 4750 5530 8230 12400 13200 20900 23900
2026-05-09 06:15 3.22 4830 43900 (1984) 2430 (1955) 10200 3090 3730 4750 5530 8230 12400 13200 20900 23900
2026-05-09 05:15 3.22 4830 43900 (1984) 2430 (1955) 10200 3090 3730 4750 5530 8230 12400 13200 20900 23900
2026-05-09 04:15 3.24 4910 43900 (1984) 2430 (1955) 10200 3090 3730 4750 5530 8230 12400 13200 20900 23900
2026-05-09 03:15 3.23 4870 43900 (1984) 2430 (1955) 10200 3090 3730 4750 5530 8230 12400 13200 20900 23900
2026-05-09 02:15 3.26 4990 43900 (1984) 2430 (1955) 10200 3090 3730 4750 5530 8230 12400 13200 20900 23900
2026-05-09 01:15 3.24 4910 43900 (1984) 2430 (1955) 10200 3090 3730 4750 5530 8230 12400 13200 20900 23900
2026-05-09 00:15 3.24 4910 43900 (1984) 2430 (1955) 10200 3090 3730 4750 5530 8230 12400 13200 20900 23900
2026-05-08 23:15 3.23 4870 43900 (1984) 2430 (1955) 10200 3090 3730 4750 5530 8230 12400 13200 20900 23900
2026-05-08 22:15 3.25 4950 51500 (2015) 2280 (1955) 11000 3370 3970 4460 5410 7900 13100 14900 24000 31400
2026-05-08 21:15 3.26 4990 51500 (2015) 2280 (1955) 11000 3370 3970 4460 5410 7900 13100 14900 24000 31400
2026-05-08 20:15 3.22 4830 51500 (2015) 2280 (1955) 11000 3370 3970 4460 5410 7900 13100 14900 24000 31400
2026-05-08 19:15 3.22 4830 51500 (2015) 2280 (1955) 11000 3370 3970 4460 5410 7900 13100 14900 24000 31400
2026-05-08 18:15 3.24 4910 51500 (2015) 2280 (1955) 11000 3370 3970 4460 5410 7900 13100 14900 24000 31400
2026-05-08 17:15 3.22 4830 51500 (2015) 2280 (1955) 11000 3370 3970 4460 5410 7900 13100 14900 24000 31400
2026-05-08 16:15 3.27 5030 51500 (2015) 2280 (1955) 11000 3370 3970 4460 5410 7900 13100 14900 24000 31400
2026-05-08 15:15 3.25 4950 51500 (2015) 2280 (1955) 11000 3370 3970 4460 5410 7900 13100 14900 24000 31400
2026-05-08 14:15 3.25 4950 51500 (2015) 2280 (1955) 11000 3370 3970 4460 5410 7900 13100 14900 24000 31400
2026-05-08 13:15 3.27 5030 51500 (2015) 2280 (1955) 11000 3370 3970 4460 5410 7900 13100 14900 24000 31400
2026-05-08 12:15 3.25 4950 51500 (2015) 2280 (1955) 11000 3370 3970 4460 5410 7900 13100 14900 24000 31400
2026-05-08 11:15 3.22 4830 51500 (2015) 2280 (1955) 11000 3370 3970 4460 5410 7900 13100 14900 24000 31400
2026-05-08 10:15 3.23 4870 51500 (2015) 2280 (1955) 11000 3370 3970 4460 5410 7900 13100 14900 24000 31400
2026-05-08 09:15 3.24 4910 51500 (2015) 2280 (1955) 11000 3370 3970 4460 5410 7900 13100 14900 24000 31400
2026-05-08 08:15 3.24 4910 51500 (2015) 2280 (1955) 11000 3370 3970 4460 5410 7900 13100 14900 24000 31400
2026-05-08 07:15 3.25 4950 51500 (2015) 2280 (1955) 11000 3370 3970 4460 5410 7900 13100 14900 24000 31400
2026-05-08 06:15 3.26 4990 51500 (2015) 2280 (1955) 11000 3370 3970 4460 5410 7900 13100 14900 24000 31400
2026-05-08 05:15 3.22 4830 51500 (2015) 2280 (1955) 11000 3370 3970 4460 5410 7900 13100 14900 24000 31400
2026-05-08 04:15 3.26 4990 51500 (2015) 2280 (1955) 11000 3370 3970 4460 5410 7900 13100 14900 24000 31400
2026-05-08 03:15 3.23 4870 51500 (2015) 2280 (1955) 11000 3370 3970 4460 5410 7900 13100 14900 24000 31400
2026-05-08 02:15 3.23 4870 51500 (2015) 2280 (1955) 11000 3370 3970 4460 5410 7900 13100 14900 24000 31400
2026-05-08 01:15 3.22 4830 51500 (2015) 2280 (1955) 11000 3370 3970 4460 5410 7900 13100 14900 24000 31400
2026-05-08 00:15 3.22 4830 51500 (2015) 2280 (1955) 11000 3370 3970 4460 5410 7900 13100 14900 24000 31400
2026-05-07 23:15 3.22 4830 51500 (2015) 2280 (1955) 11000 3370 3970 4460 5410 7900 13100 14900 24000 31400
2026-05-07 22:15 3.21 4790 45800 (1984) 2200 (1955) 11000 3320 3850 4630 5210 8120 13300 15500 23500 34100
2026-05-07 21:15 3.20 4750 45800 (1984) 2200 (1955) 11000 3320 3850 4630 5210 8120 13300 15500 23500 34100
2026-05-07 20:15 3.19 4710 45800 (1984) 2200 (1955) 11000 3320 3850 4630 5210 8120 13300 15500 23500 34100
2026-05-07 19:15 3.16 4590 45800 (1984) 2200 (1955) 11000 3320 3850 4630 5210 8120 13300 15500 23500 34100
2026-05-07 18:15 3.17 4630 45800 (1984) 2200 (1955) 11000 3320 3850 4630 5210 8120 13300 15500 23500 34100
2026-05-07 17:15 3.15 4550 45800 (1984) 2200 (1955) 11000 3320 3850 4630 5210 8120 13300 15500 23500 34100
2026-05-07 16:15 3.11 4400 45800 (1984) 2200 (1955) 11000 3320 3850 4630 5210 8120 13300 15500 23500 34100
2026-05-07 15:15 3.13 4480 45800 (1984) 2200 (1955) 11000 3320 3850 4630 5210 8120 13300 15500 23500 34100
2026-05-07 14:15 3.15 4550 45800 (1984) 2200 (1955) 11000 3320 3850 4630 5210 8120 13300 15500 23500 34100
2026-05-07 13:15 3.13 4480 45800 (1984) 2200 (1955) 11000 3320 3850 4630 5210 8120 13300 15500 23500 34100
2026-05-07 12:15 3.16 4590 45800 (1984) 2200 (1955) 11000 3320 3850 4630 5210 8120 13300 15500 23500 34100
2026-05-07 11:15 3.15 4550 45800 (1984) 2200 (1955) 11000 3320 3850 4630 5210 8120 13300 15500 23500 34100
2026-05-07 10:15 3.14 4520 45800 (1984) 2200 (1955) 11000 3320 3850 4630 5210 8120 13300 15500 23500 34100
2026-05-07 09:15 3.17 4630 45800 (1984) 2200 (1955) 11000 3320 3850 4630 5210 8120 13300 15500 23500 34100
2026-05-07 08:15 3.18 4670 45800 (1984) 2200 (1955) 11000 3320 3850 4630 5210 8120 13300 15500 23500 34100
2026-05-07 07:15 3.18 4670 45800 (1984) 2200 (1955) 11000 3320 3850 4630 5210 8120 13300 15500 23500 34100
2026-05-07 06:15 3.18 4670 45800 (1984) 2200 (1955) 11000 3320 3850 4630 5210 8120 13300 15500 23500 34100
2026-05-07 05:15 3.23 4870 45800 (1984) 2200 (1955) 11000 3320 3850 4630 5210 8120 13300 15500 23500 34100
2026-05-07 04:15 3.23 4870 45800 (1984) 2200 (1955) 11000 3320 3850 4630 5210 8120 13300 15500 23500 34100
2026-05-07 03:15 3.24 4910 45800 (1984) 2200 (1955) 11000 3320 3850 4630 5210 8120 13300 15500 23500 34100
2026-05-07 02:15 3.25 4950 45800 (1984) 2200 (1955) 11000 3320 3850 4630 5210 8120 13300 15500 23500 34100
2026-05-07 01:15 3.24 4910 45800 (1984) 2200 (1955) 11000 3320 3850 4630 5210 8120 13300 15500 23500 34100
2026-05-07 00:15 3.27 5030 45800 (1984) 2200 (1955) 11000 3320 3850 4630 5210 8120 13300 15500 23500 34100
2026-05-06 23:15 3.26 4990 45800 (1984) 2200 (1955) 11000 3320 3850 4630 5210 8120 13300 15500 23500 34100
2026-05-06 22:15 3.24 4910 40500 (1984) 2200 (1955) 10300 3660 3960 4730 5300 7610 11800 13200 21500 29200
2026-05-06 21:15 3.27 5030 40500 (1984) 2200 (1955) 10300 3660 3960 4730 5300 7610 11800 13200 21500 29200
2026-05-06 20:15 3.27 5030 40500 (1984) 2200 (1955) 10300 3660 3960 4730 5300 7610 11800 13200 21500 29200
2026-05-06 19:15 3.26 4990 40500 (1984) 2200 (1955) 10300 3660 3960 4730 5300 7610 11800 13200 21500 29200
2026-05-06 18:15 3.26 4990 40500 (1984) 2200 (1955) 10300 3660 3960 4730 5300 7610 11800 13200 21500 29200
2026-05-06 17:15 3.24 4910 40500 (1984) 2200 (1955) 10300 3660 3960 4730 5300 7610 11800 13200 21500 29200
2026-05-06 16:15 3.25 4950 40500 (1984) 2200 (1955) 10300 3660 3960 4730 5300 7610 11800 13200 21500 29200
2026-05-06 15:15 3.22 4830 40500 (1984) 2200 (1955) 10300 3660 3960 4730 5300 7610 11800 13200 21500 29200
2026-05-06 14:15 3.21 4790 40500 (1984) 2200 (1955) 10300 3660 3960 4730 5300 7610 11800 13200 21500 29200
2026-05-06 13:15 3.22 4830 40500 (1984) 2200 (1955) 10300 3660 3960 4730 5300 7610 11800 13200 21500 29200
2026-05-06 12:15 3.13 4480 40500 (1984) 2200 (1955) 10300 3660 3960 4730 5300 7610 11800 13200 21500 29200
2026-05-06 11:15 3.13 4480 40500 (1984) 2200 (1955) 10300 3660 3960 4730 5300 7610 11800 13200 21500 29200
2026-05-06 10:15 3.11 4400 40500 (1984) 2200 (1955) 10300 3660 3960 4730 5300 7610 11800 13200 21500 29200
2026-05-06 09:15 3.14 4520 40500 (1984) 2200 (1955) 10300 3660 3960 4730 5300 7610 11800 13200 21500 29200
2026-05-06 08:15 3.13 4480 40500 (1984) 2200 (1955) 10300 3660 3960 4730 5300 7610 11800 13200 21500 29200
2026-05-06 07:15 3.13 4480 40500 (1984) 2200 (1955) 10300 3660 3960 4730 5300 7610 11800 13200 21500 29200
2026-05-06 06:15 3.13 4480 40500 (1984) 2200 (1955) 10300 3660 3960 4730 5300 7610 11800 13200 21500 29200
2026-05-06 05:15 3.16 4590 40500 (1984) 2200 (1955) 10300 3660 3960 4730 5300 7610 11800 13200 21500 29200
2026-05-06 04:15 3.16 4590 40500 (1984) 2200 (1955) 10300 3660 3960 4730 5300 7610 11800 13200 21500 29200
2026-05-06 03:15 3.16 4590 40500 (1984) 2200 (1955) 10300 3660 3960 4730 5300 7610 11800 13200 21500 29200
2026-05-06 02:15 3.14 4520 40500 (1984) 2200 (1955) 10300 3660 3960 4730 5300 7610 11800 13200 21500 29200
2026-05-06 01:15 3.13 4480 40500 (1984) 2200 (1955) 10300 3660 3960 4730 5300 7610 11800 13200 21500 29200
2026-05-06 00:15 3.15 4550 40500 (1984) 2200 (1955) 10300 3660 3960 4730 5300 7610 11800 13200 21500 29200
2026-05-05 23:15 3.15 4550 40500 (1984) 2200 (1955) 10300 3660 3960 4730 5300 7610 11800 13200 21500 29200
2026-05-05 22:15 3.15 4550 42800 (1984) 2430 (1955) 9810 3470 3960 5100 5600 7540 11200 12600 19200 26400
2026-05-05 21:15 3.16 4590 42800 (1984) 2430 (1955) 9810 3470 3960 5100 5600 7540 11200 12600 19200 26400
2026-05-05 20:15 3.18 4670 42800 (1984) 2430 (1955) 9810 3470 3960 5100 5600 7540 11200 12600 19200 26400
2026-05-05 19:15 3.14 4520 42800 (1984) 2430 (1955) 9810 3470 3960 5100 5600 7540 11200 12600 19200 26400
2026-05-05 18:15 3.17 4630 42800 (1984) 2430 (1955) 9810 3470 3960 5100 5600 7540 11200 12600 19200 26400
2026-05-05 17:15 3.15 4550 42800 (1984) 2430 (1955) 9810 3470 3960 5100 5600 7540 11200 12600 19200 26400
2026-05-05 16:15 3.16 4590 42800 (1984) 2430 (1955) 9810 3470 3960 5100 5600 7540 11200 12600 19200 26400
2026-05-05 15:15 3.17 4630 42800 (1984) 2430 (1955) 9810 3470 3960 5100 5600 7540 11200 12600 19200 26400
2026-05-05 14:15 3.16 4590 42800 (1984) 2430 (1955) 9810 3470 3960 5100 5600 7540 11200 12600 19200 26400
2026-05-05 13:15 3.17 4630 42800 (1984) 2430 (1955) 9810 3470 3960 5100 5600 7540 11200 12600 19200 26400
2026-05-05 12:15 3.14 4520 42800 (1984) 2430 (1955) 9810 3470 3960 5100 5600 7540 11200 12600 19200 26400
2026-05-05 11:15 3.14 4520 42800 (1984) 2430 (1955) 9810 3470 3960 5100 5600 7540 11200 12600 19200 26400
2026-05-05 10:15 3.17 4630 42800 (1984) 2430 (1955) 9810 3470 3960 5100 5600 7540 11200 12600 19200 26400
2026-05-05 09:15 3.15 4550 42800 (1984) 2430 (1955) 9810 3470 3960 5100 5600 7540 11200 12600 19200 26400
2026-05-05 08:15 3.16 4590 42800 (1984) 2430 (1955) 9810 3470 3960 5100 5600 7540 11200 12600 19200 26400
2026-05-05 07:15 3.18 4670 42800 (1984) 2430 (1955) 9810 3470 3960 5100 5600 7540 11200 12600 19200 26400
2026-05-05 06:15 3.17 4630 42800 (1984) 2430 (1955) 9810 3470 3960 5100 5600 7540 11200 12600 19200 26400
2026-05-05 05:15 3.17 4630 42800 (1984) 2430 (1955) 9810 3470 3960 5100 5600 7540 11200 12600 19200 26400
2026-05-05 04:15 3.18 4670 42800 (1984) 2430 (1955) 9810 3470 3960 5100 5600 7540 11200 12600 19200 26400
2026-05-05 03:15 3.18 4670 42800 (1984) 2430 (1955) 9810 3470 3960 5100 5600 7540 11200 12600 19200 26400
2026-05-05 02:15 3.19 4710 42800 (1984) 2430 (1955) 9810 3470 3960 5100 5600 7540 11200 12600 19200 26400
2026-05-05 01:15 3.20 4750 42800 (1984) 2430 (1955) 9810 3470 3960 5100 5600 7540 11200 12600 19200 26400
2026-05-05 00:15 3.19 4710 42800 (1984) 2430 (1955) 9810 3470 3960 5100 5600 7540 11200 12600 19200 26400
2026-05-04 23:15 3.17 4630 42800 (1984) 2430 (1955) 9810 3470 3960 5100 5600 7540 11200 12600 19200 26400
2026-05-04 22:15 3.18 4670 44800 (1984) 2820 (1955) 9470 3470 4120 5000 5710 7740 10800 12400 15500 22100
2026-05-04 21:15 3.17 4630 44800 (1984) 2820 (1955) 9470 3470 4120 5000 5710 7740 10800 12400 15500 22100
2026-05-04 20:15 3.19 4710 44800 (1984) 2820 (1955) 9470 3470 4120 5000 5710 7740 10800 12400 15500 22100
2026-05-04 19:15 3.19 4710 44800 (1984) 2820 (1955) 9470 3470 4120 5000 5710 7740 10800 12400 15500 22100
2026-05-04 18:15 3.19 4710 44800 (1984) 2820 (1955) 9470 3470 4120 5000 5710 7740 10800 12400 15500 22100
2026-05-04 17:15 3.20 4750 44800 (1984) 2820 (1955) 9470 3470 4120 5000 5710 7740 10800 12400 15500 22100
2026-05-04 16:15 3.21 4790 44800 (1984) 2820 (1955) 9470 3470 4120 5000 5710 7740 10800 12400 15500 22100
2026-05-04 15:15 3.22 4830 44800 (1984) 2820 (1955) 9470 3470 4120 5000 5710 7740 10800 12400 15500 22100
2026-05-04 14:15 3.19 4710 44800 (1984) 2820 (1955) 9470 3470 4120 5000 5710 7740 10800 12400 15500 22100
2026-05-04 13:15 3.20 4750 44800 (1984) 2820 (1955) 9470 3470 4120 5000 5710 7740 10800 12400 15500 22100
2026-05-04 12:15 3.22 4830 44800 (1984) 2820 (1955) 9470 3470 4120 5000 5710 7740 10800 12400 15500 22100
2026-05-04 11:15 3.19 4710 44800 (1984) 2820 (1955) 9470 3470 4120 5000 5710 7740 10800 12400 15500 22100
2026-05-04 10:15 3.19 4710 44800 (1984) 2820 (1955) 9470 3470 4120 5000 5710 7740 10800 12400 15500 22100
2026-05-04 09:15 3.20 4750 44800 (1984) 2820 (1955) 9470 3470 4120 5000 5710 7740 10800 12400 15500 22100
2026-05-04 08:15 3.19 4710 44800 (1984) 2820 (1955) 9470 3470 4120 5000 5710 7740 10800 12400 15500 22100
2026-05-04 07:15 3.18 4670 44800 (1984) 2820 (1955) 9470 3470 4120 5000 5710 7740 10800 12400 15500 22100
2026-05-04 06:15 3.17 4630 44800 (1984) 2820 (1955) 9470 3470 4120 5000 5710 7740 10800 12400 15500 22100
2026-05-04 05:15 3.15 4550 44800 (1984) 2820 (1955) 9470 3470 4120 5000 5710 7740 10800 12400 15500 22100
2026-05-04 04:15 3.14 4520 44800 (1984) 2820 (1955) 9470 3470 4120 5000 5710 7740 10800 12400 15500 22100
2026-05-04 03:15 3.13 4480 44800 (1984) 2820 (1955) 9470 3470 4120 5000 5710 7740 10800 12400 15500 22100
2026-05-04 02:15 3.10 4370 44800 (1984) 2820 (1955) 9470 3470 4120 5000 5710 7740 10800 12400 15500 22100
2026-05-04 01:15 3.12 4440 44800 (1984) 2820 (1955) 9470 3470 4120 5000 5710 7740 10800 12400 15500 22100
2026-05-04 00:15 3.10 4370 44800 (1984) 2820 (1955) 9470 3470 4120 5000 5710 7740 10800 12400 15500 22100
2026-05-03 23:15 3.10 4370 44800 (1984) 2820 (1955) 9470 3470 4120 5000 5710 7740 10800 12400 15500 22100
2026-05-03 22:15 3.08 4290 42900 (1984) 2580 (1981) 9560 3190 3830 5150 5420 7740 11600 11900 15500 23900
2026-05-03 21:15 3.09 4330 42900 (1984) 2580 (1981) 9560 3190 3830 5150 5420 7740 11600 11900 15500 23900
2026-05-03 20:15 3.08 4290 42900 (1984) 2580 (1981) 9560 3190 3830 5150 5420 7740 11600 11900 15500 23900
2026-05-03 19:15 3.07 4260 42900 (1984) 2580 (1981) 9560 3190 3830 5150 5420 7740 11600 11900 15500 23900
2026-05-03 18:15 3.07 4260 42900 (1984) 2580 (1981) 9560 3190 3830 5150 5420 7740 11600 11900 15500 23900
2026-05-03 17:15 3.07 4260 42900 (1984) 2580 (1981) 9560 3190 3830 5150 5420 7740 11600 11900 15500 23900
2026-05-03 16:15 3.07 4260 42900 (1984) 2580 (1981) 9560 3190 3830 5150 5420 7740 11600 11900 15500 23900
2026-05-03 15:15 3.07 4260 42900 (1984) 2580 (1981) 9560 3190 3830 5150 5420 7740 11600 11900 15500 23900
2026-05-03 14:15 3.09 4330 42900 (1984) 2580 (1981) 9560 3190 3830 5150 5420 7740 11600 11900 15500 23900
2026-05-03 13:15 3.07 4260 42900 (1984) 2580 (1981) 9560 3190 3830 5150 5420 7740 11600 11900 15500 23900
2026-05-03 12:15 3.08 4290 42900 (1984) 2580 (1981) 9560 3190 3830 5150 5420 7740 11600 11900 15500 23900
2026-05-03 11:15 3.09 4330 42900 (1984) 2580 (1981) 9560 3190 3830 5150 5420 7740 11600 11900 15500 23900
2026-05-03 10:15 3.08 4290 42900 (1984) 2580 (1981) 9560 3190 3830 5150 5420 7740 11600 11900 15500 23900
2026-05-03 09:15 3.10 4370 42900 (1984) 2580 (1981) 9560 3190 3830 5150 5420 7740 11600 11900 15500 23900
2026-05-03 08:15 3.12 4440 42900 (1984) 2580 (1981) 9560 3190 3830 5150 5420 7740 11600 11900 15500 23900
2026-05-03 07:15 3.14 4520 42900 (1984) 2580 (1981) 9560 3190 3830 5150 5420 7740 11600 11900 15500 23900
2026-05-03 06:15 3.15 4550 42900 (1984) 2580 (1981) 9560 3190 3830 5150 5420 7740 11600 11900 15500 23900
2026-05-03 05:15 3.15 4550 42900 (1984) 2580 (1981) 9560 3190 3830 5150 5420 7740 11600 11900 15500 23900
2026-05-03 04:15 3.19 4710 42900 (1984) 2580 (1981) 9560 3190 3830 5150 5420 7740 11600 11900 15500 23900
2026-05-03 03:15 3.21 4790 42900 (1984) 2580 (1981) 9560 3190 3830 5150 5420 7740 11600 11900 15500 23900
2026-05-03 02:15 3.26 4990 42900 (1984) 2580 (1981) 9560 3190 3830 5150 5420 7740 11600 11900 15500 23900
2026-05-03 01:15 3.29 5110 42900 (1984) 2580 (1981) 9560 3190 3830 5150 5420 7740 11600 11900 15500 23900
2026-05-03 00:15 3.33 5280 42900 (1984) 2580 (1981) 9560 3190 3830 5150 5420 7740 11600 11900 15500 23900
2026-05-02 23:15 3.38 5490 42900 (1984) 2580 (1981) 9560 3190 3830 5150 5420 7740 11600 11900 15500 23900

A total of 185 rows are displayed for years 1954 through 2025.